Terminal Aerodrome Forecast
Issued by NWS

Home | Current Version | Previous Version | Text Only | Print | Product List | Glossary On
Versions: 1 2 3 4 5 6 7 8 9 10 11 12 13 14 15 16 17 18 19 20 21 22 23 24 25 26 27 28 29 30 31 32 33 34 35 36 37
000
FTUS45 KGJT 020111 AAA
TAFMTJ
TAF AMD
KMTJ 020111Z 0201/0224 VRB03KT P6SM -SN SCT025 BKN040 OVC070
     FM020600 13005KT P6SM -SN VCFG SCT015 BKN025
     FM021200 15012G18KT P6SM VCSH BKN040 OVC060
     FM021900 21015G25KT P6SM VCSH SCT040 BKN060=

USA.gov is the U.S. government's official web portal to all federal, state and local government web resources and services.